Location: Lower Kingswood
(51.2667°N, 0.2167°W)
Time: 12:32:52
(UTC+00:00)

S3M - Pass Details

Date: 26 September 2023
Orbit: 948 x 1005 km, 83.0° (Epoch: 28 November)

Event Time Altitude Azimuth Distance (km) Brightness Sun altitude
Rises 03:28:57 0° 349° (NNW) 3,747 7.3 -22.4°
Reaches altitude 10° 03:31:30 10° 348° (NNW) 2,792 6.6 -22.1°
Maximum altitude 03:37:55 78° 264° (W) 1,027 3.9 -21.2°
Drops below altitude 10° 03:44:15 10° 179° (S) 2,751 6.1 -20.3°
Sets 03:46:44 0° 178° (S) 3,689 6.8 -20.0°
